[[{"header":{"parameterUnit":"m.s-1","parameterCategory":1,"la1":30.2991,"la2":30.254,"lo1":-89.0895,"lo2":-89.0444,"dx":0.0017,"dy":0.0017,"nx":28,"ny":28,"refTime":"2022-12-13T15:00:00:Z","depth":0,"parameterNumber":2,"parameterNumberName":"U-component_of_WINDS"},"data":[0,0,0,0,0,0,0,0,0,0,0,0,0,0,0,0,0,0,0,0,0,0,0,0,0,0,0,0,0,0,0,0,0,0,0,0,0,0,0,0,0,0,0,0,0,0,0,0,0,0,0,0,0,0,0,0,0,0,-0.9299,-0.93,0,-0.9453,-0.9455,-0.9456,-0.9549,-0.955,-0.955,-0.9551,-0.9704,-0.9708,-0.9711,0,0,0,0,0,0,0,0,0,0,0,0,0,-0.908,-0.9083,-0.9298,-0.93,-0.9302,-0.9453,-0.9455,-0.9457,-0.9549,-0.955,-0.955,-0.9551,-0.9703,-0.9707,-0.9712,0,0,0,0,0,0,0,0,0,0,0,0,0,-0.9198,-0.9084,-0.9298,-0.9367,-0.9374,-0.9452,-0.9455,-0.9457,-0.9549,-0.955,-0.955,-0.9551,-0.9701,-0.9707,-0.9712,-0.9732,0,0,-0.9729,-0.9731,0,0,0,0,0,0,0,0,-0.9191,-0.9206,-0.9355,-0.9362,-0.9371,-0.9483,-0.9434,-0.9549,-0.9549,-0.9482,-0.9551,-0.9551,-0.9629,-0.9641,-0.9668,-0.974,-0.9746,-0.9729,-0.9733,-0.9735,-0.9737,0,0,0,0,0,0,0,-0.9183,-0.92,-0.9359,-0.9357,-0.9366,-0.9388,-0.9406,-0.9456,-0.955,-0.9488,-0.9495,-0.9513,-0.9634,-0.9663,-0.9673,-0.9748,-0.9729,-0.9734,-0.9738,-0.974,-0.9844,-0.9843,0,0,0,0,0,0,-0.9165,-0.9193,-0.9354,-0.9364,-0.9281,-0.9392,-0.9411,-0.9446,-0.955,-0.9566,-0.9512,-0.9516,-0.9653,-0.9666,-0.9678,-0.9709,-0.9735,-0.974,-0.9743,-0.9844,-0.9844,-0.9843,0,0,0,0,0,0,-0.9159,-0.9178,-0.9348,-0.928,-0.9304,-0.9395,-0.9433,-0.9449,-0.9478,-0.9568,-0.9585,-0.9524,-0.9654,-0.9671,-0.9719,-0.9715,-0.9743,-0.9748,-0.9845,-0.9844,-0.9843,-0.977,0,0,0,0,0,0,-0.9153,-0.9176,-0.9185,-0.928,-0.9307,-0.9387,-0.9433,-0.9451,-0.9487,-0.9495,-0.9584,-0.9599,-0.9656,-0.971,-0.9724,-0.9724,-0.9752,-0.9846,-0.9845,-0.9844,-0.9773,-0.9767,-0.9761,0,0,0,0,0,-0.9145,-0.9158,-0.9185,-0.9204,-0.9321,-0.9387,-0.9402,-0.9468,-0.9487,-0.9496,-0.9554,-0.9596,-0.9714,-0.9714,-0.9731,-0.9732,-0.9846,-0.9845,-0.9844,-0.9776,-0.9768,-0.9761,0,0,0,0,0,0,-0.9059,-0.9171,-0.9203,-0.9248,-0.9307,-0.9402,-0.9417,-0.9458,-0.9512,-0.9517,-0.9595,-0.9614,-0.9655,-0.9698,-0.9697,-0.9757,-0.9785,-0.9787,-0.9727,-0.972,-0.9715,-0.9703,-0.9757,0,0,0,0,0,-0.9045,-0.9091,-0.9186,-0.9215,-0.9244,-0.9325,-0.9356,-0.9402,-0.9466,-0.9491,-0.9553,-0.9612,-0.9663,-0.9694,-0.9745,-0.978,-0.98,-0.9789,-0.9783,-0.9778,-0.9778,-0.9799,-0.9795,-0.9839,-0.9839,-0.9839,0,0,-0.9017,-0.9084,-0.9108,-0.92,-0.9252,-0.9295,-0.9345,-0.939,-0.9423,-0.9498,-0.9547,-0.9594,-0.9665,-0.9707,-0.9728,-0.9744,-0.9771,-0.9776,-0.9771,-0.9775,-0.9798,-0.9793,-0.9789,-0.9838,-0.9839,-0.9839,0,0,-0.8989,-0.9044,-0.9075,-0.9126,-0.9204,-0.9258,-0.9265,-0.9354,-0.9389,-0.944,-0.9497,-0.9537,-0.9622,-0.967,-0.9706,-0.9696,-0.9736,-0.971,-0.9679,-0.9699,-0.9695,-0.9693,-0.9688,-0.9686,-0.971,-0.971,-0.971,0,-0.8944,-0.9014,-0.9085,-0.9127,-0.9165,-0.9237,-0.9268,-0.9313,-0.9402,-0.9427,-0.9444,-0.9553,-0.9606,-0.9659,-0.9657,-0.9683,-0.9693,-0.97,-0.969,-0.9688,-0.9687,-0.9684,-0.9682,-0.9707,-0.9707,-0.9707,-0.9708,0,-0.8954,-0.9002,-0.9017,-0.9103,-0.9144,-0.9179,-0.9255,-0.9287,-0.9329,-0.938,-0.9431,-0.9497,-0.9563,-0.9579,-0.962,-0.9638,-0.9646,-0.9676,-0.9705,-0.9678,-0.9676,-0.9675,-0.9701,-0.9703,-0.9704,-0.9705,0,0,-0.8876,-0.9002,-0.9007,-0.9047,-0.9138,-0.9175,-0.9213,-0.9279,-0.9304,-0.9364,-0.9397,-0.9468,-0.9496,-0.9536,-0.9583,-0.96,-0.9587,-0.9628,-0.9631,-0.9618,-0.961,-0.9587,-0.9585,-0.9615,-0.9615,-0.9615,-0.9604,0,-0.8861,-0.8935,-0.9001,-0.905,-0.9094,-0.9163,-0.9196,-0.9254,-0.9303,-0.9347,-0.94,-0.9449,-0.9483,-0.9507,-0.9528,-0.9584,-0.9587,-0.9586,-0.9645,-0.9647,-0.9625,-0.9584,-0.956,-0.9547,-0.9604,-0.9604,-0.9604,0,-0.8853,-0.8911,-0.8965,-0.9052,-0.9073,-0.9102,-0.9167,-0.9208,-0.9275,-0.931,-0.9355,-0.9404,-0.9447,-0.9472,-0.9531,-0.9529,-0.9557,-0.9588,-0.9589,-0.9597,-0.9623,-0.959,-0.9545,-0.9542,-0.9604,-0.9604,-0.9604,0,-0.879,-0.8881,-0.8926,-0.8958,-0.906,-0.9079,-0.9122,-0.919,-0.9225,-0.9282,-0.9305,-0.9365,-0.9398,-0.9443,-0.9507,-0.9519,-0.9558,-0.9589,-0.9587,-0.9585,-0.9592,-0.9591,-0.955,-0.961,-0.961,-0.961,-0.961,0,-0.8766,-0.8797,-0.8899,-0.8926,-0.8962,-0.9036,-0.9069,-0.9118,-0.9178,-0.9215,-0.9277,-0.931,-0.9392,-0.9435,-0.9485,-0.9526,-0.954,-0.9568,-0.9581,-0.9562,-0.9559,-0.9581,-0.9584,-0.961,-0.961,-0.961,-0.961,0,-0.8702,-0.8772,-0.8825,-0.8917,-0.8941,-0.8963,-0.9042,-0.907,-0.9122,-0.9168,-0.9183,-0.9265,-0.9318,-0.9387,-0.9461,-0.9495,-0.9529,-0.9549,-0.9507,-0.9514,-0.9509,-0.9508,-0.948,-0.948,-0.954,-0.954,-0.9539,0,-0.8682,-0.8707,-0.8803,-0.8832,-0.8874,-0.8921,-0.8958,-0.9031,-0.9066,-0.9145,-0.9163,-0.9221,-0.9272,-0.9353,-0.9419,-0.9476,-0.9497,-0.9484,-0.9506,-0.9487,-0.9497,-0.9494,-0.9497,-0.9478,-0.9477,-0.9476,-0.9475,0,-0.8639,-0.8672,-0.8723,-0.8786,-0.8828,-0.8881,-0.8937,-0.8957,-0.9042,-0.9078,-0.9134,-0.9173,-0.925,-0.9306,-0.9372,-0.9415,-0.9459,-0.9468,-0.947,-0.9451,-0.9426,-0.9439,-0.9491,-0.9468,-0.9469,-0.9469,-0.947,-0.947,-0.8597,-0.8622,-0.8693,-0.8747,-0.8797,-0.8847,-0.8878,-0.8935,-0.8983,-0.9052,-0.9092,-0.9146,-0.9212,-0.9305,-0.9346,-0.9389,-0.9406,-0.9409,-0.941,-0.941,-0.9404,-0.9419,-0.9401,-0.9401,-0.9402,-0.9402,-0.9402,0,-0.8556,-0.8605,-0.8655,-0.8731,-0.8773,-0.8812,-0.8876,-0.8908,-0.8955,-0.9014,-0.9063,-0.9126,-0.9181,-0.9251,-0.9311,-0.9331,-0.9353,-0.9344,-0.9343,-0.9352,-0.9386,-0.9377,-0.9326,-0.9326,-0.9326,-0.9326,-0.9326,-0.9326,-0.854,-0.8585,-0.8627,-0.8696,-0.8745,-0.88,-0.8832,-0.8879,-0.8926,-0.8994,-0.9041,-0.9087,-0.9149,-0.9214,-0.9266,-0.9285,-0.9303,-0.9289,-0.9313,-0.9343,-0.935,-0.9356,-0.9349,-0.9292,-0.9292,-0.9277,-0.9276,-0.9276]},{"header":{"parameterUnit":"m.s-1","parameterCategory":1,"la1":30.2991,"la2":30.254,"lo1":-89.0895,"lo2":-89.0444,"dx":0.0017,"dy":0.0017,"nx":28,"ny":28,"refTime":"2022-12-13T15:00:00:Z","depth":0,"parameterNumber":3,"parameterNumberName":"V-component_of_WINDS"},"data":[0,0,0,0,0,0,0,0,0,0,0,0,0,0,0,0,0,0,0,0,0,0,0,0,0,0,0,0,0,0,0,0,0,0,0,0,0,0,0,0,0,0,0,0,0,0,0,0,0,0,0,0,0,0,0,0,0,0,8.2108,8.211,0,8.2316,8.2318,8.232,8.2341,8.2338,8.2336,8.2334,8.2546,8.2553,8.2561,0,0,0,0,0,0,0,0,0,0,0,0,0,8.1731,8.1738,8.2108,8.211,8.2113,8.2315,8.2318,8.2321,8.2341,8.2338,8.2336,8.2333,8.2543,8.2553,8.2562,0,0,0,0,0,0,0,0,0,0,0,0,0,8.1912,8.174,8.2107,8.2147,8.2153,8.2315,8.2318,8.2322,8.2342,8.2338,8.2335,8.2332,8.254,8.2552,8.2563,8.2699,0,0,8.2598,8.2603,0,0,0,0,0,0,0,0,8.1902,8.1926,8.2139,8.2145,8.2151,8.2299,8.2263,8.2448,8.2342,8.227,8.2334,8.233,8.2466,8.2484,8.253,8.2708,8.2718,8.2599,8.2606,8.2611,8.2614,0,0,0,0,0,0,0,8.189,8.1917,8.219,8.2142,8.215,8.2156,8.2178,8.2298,8.2384,8.2276,8.2278,8.2302,8.2469,8.2519,8.2535,8.2721,8.2599,8.2609,8.2616,8.262,8.3027,8.3031,0,0,0,0,0,0,8.1869,8.1907,8.2183,8.2196,8.2016,8.2165,8.219,8.2255,8.2382,8.2399,8.2305,8.2302,8.2501,8.2521,8.2542,8.2714,8.2611,8.2622,8.2628,8.3023,8.3028,8.3032,0,0,0,0,0,0,8.1861,8.1894,8.2175,8.2052,8.2089,8.2175,8.2248,8.2261,8.231,8.2404,8.242,8.234,8.2499,8.2526,8.2661,8.2721,8.2627,8.2637,8.3019,8.3025,8.303,8.3055,0,0,0,0,0,0,8.185,8.1891,8.1942,8.2053,8.2095,8.2289,8.2251,8.2267,8.233,8.2329,8.2441,8.2456,8.2498,8.2644,8.2672,8.2735,8.2646,8.3014,8.3022,8.3029,8.3049,8.3061,8.3071,0,0,0,0,0,8.1837,8.1939,8.1945,8.1978,8.2161,8.2293,8.2317,8.2363,8.2335,8.2388,8.245,8.2453,8.271,8.2657,8.269,8.2757,8.301,8.3019,8.3028,8.3044,8.3059,8.3071,0,0,0,0,0,0,8.1831,8.1954,8.1962,8.2103,8.2188,8.2296,8.2364,8.2376,8.247,8.2465,8.2518,8.2544,8.2678,8.273,8.267,8.2898,8.2857,8.2873,8.2859,8.2873,8.2884,8.2869,8.2656,0,0,0,0,0,8.1847,8.1943,8.2045,8.216,8.2203,8.2276,8.2335,8.2364,8.2454,8.2489,8.256,8.2647,8.2748,8.2813,8.2911,8.3057,8.3084,8.312,8.313,8.3139,8.3153,8.3239,8.3257,8.3062,8.3061,8.3061,0,0,8.1879,8.1958,8.2015,8.2161,8.223,8.2331,8.2306,8.2411,8.2487,8.2505,8.2638,8.2694,8.2794,8.2937,8.3003,8.2985,8.3213,8.315,8.3156,8.3166,8.325,8.3269,8.3285,8.3068,8.3066,8.3065,0,0,8.199,8.2058,8.2164,8.2235,8.234,8.239,8.2415,8.2523,8.2561,8.2696,8.2713,8.2804,8.2975,8.3048,8.3107,8.3252,8.326,8.3282,8.334,8.3423,8.3439,8.3453,8.3509,8.3527,8.3295,8.3295,8.3295,0,8.2017,8.2169,8.2217,8.2324,8.239,8.2412,8.2522,8.2588,8.2719,8.2765,8.2743,8.2962,8.3031,8.3194,8.323,8.3275,8.3309,8.327,8.3433,8.3447,8.3461,8.3515,8.3535,8.3297,8.3297,8.3297,8.3296,0,8.2199,8.2304,8.2377,8.2506,8.258,8.2687,8.2753,8.2822,8.2846,8.2898,8.3038,8.3122,8.3239,8.328,8.3302,8.3447,8.3434,8.3421,8.3382,8.3481,8.3533,8.3554,8.33,8.33,8.3299,8.3298,0,0,8.231,8.2469,8.2495,8.2556,8.2676,8.2759,8.2869,8.2986,8.3046,8.3136,8.3233,8.3379,8.3371,8.3438,8.347,8.3543,8.3658,8.3523,8.3527,8.3549,8.3828,8.3839,8.3861,8.3664,8.3668,8.3671,8.3821,0,8.2438,8.2635,8.2684,8.2853,8.2954,8.2979,8.3076,8.3161,8.3214,8.3307,8.3365,8.347,8.3449,8.3491,8.3564,8.3628,8.3716,8.3618,8.3756,8.3761,8.3733,8.3888,8.3898,8.4035,8.3841,8.3845,8.3847,0,8.2612,8.271,8.289,8.3002,8.3046,8.3132,8.3246,8.3334,8.3433,8.3466,8.3545,8.357,8.3689,8.3642,8.3808,8.3741,8.3801,8.3842,8.3848,8.3865,8.3811,8.3912,8.408,8.4102,8.3878,8.3876,8.3874,0,8.2681,8.2857,8.2989,8.304,8.3173,8.3234,8.3292,8.3388,8.3457,8.3556,8.3602,8.3713,8.3774,8.386,8.3917,8.3877,8.408,8.4037,8.4114,8.4113,8.4156,8.4153,8.434,8.419,8.4189,8.4189,8.4189,0,8.282,8.2929,8.3022,8.3103,8.3229,8.3285,8.3408,8.3467,8.3553,8.3648,8.3675,8.3764,8.3832,8.393,8.3975,8.4109,8.4135,8.4167,8.4178,8.4167,8.4163,8.4208,8.4201,8.4195,8.4193,8.4192,8.4191,0,8.2917,8.2983,8.313,8.3245,8.3277,8.3365,8.3464,8.3546,8.36,8.372,8.3752,8.3838,8.3956,8.4021,8.4168,8.4198,8.4349,8.4353,8.4316,8.4322,8.4396,8.439,8.462,8.4655,8.4479,8.448,8.4482,0,8.3002,8.3088,8.3214,8.3281,8.3341,8.3446,8.3518,8.3578,8.3651,8.3773,8.3841,8.3961,8.406,8.4248,8.4325,8.4439,8.4448,8.4521,8.4466,8.4453,8.4454,8.445,8.4461,8.4532,8.4533,8.4534,8.4536,0,8.3148,8.3178,8.328,8.3396,8.3481,8.3574,8.3666,8.3719,8.3794,8.3876,8.3998,8.4076,8.4229,8.4349,8.447,8.4531,8.4548,8.4553,8.4577,8.4567,8.4544,8.4562,8.4346,8.4547,8.4546,8.4545,8.4545,8.4544,8.3245,8.3325,8.3428,8.3542,8.3618,8.3705,8.3789,8.3856,8.3959,8.4089,8.4118,8.4248,8.435,8.4515,8.458,8.4684,8.467,8.4704,8.4714,8.4722,8.4728,8.4526,8.4706,8.4705,8.4705,8.4705,8.4705,0,8.3396,8.3465,8.3569,8.3699,8.379,8.3798,8.3902,8.3978,8.4093,8.4186,8.4285,8.4428,8.4546,8.4634,8.4755,8.4822,8.4833,8.4852,8.4849,8.4864,8.4731,8.4699,8.4841,8.4841,8.4841,8.4841,8.4841,8.4841,8.3485,8.3622,8.3665,8.3842,8.3909,8.4038,8.4098,8.418,8.4255,8.4414,8.4513,8.457,8.4663,8.4792,8.4902,8.4924,8.4969,8.4989,8.5013,8.4887,8.4873,8.4859,8.483,8.4997,8.4997,8.5138,8.5139,8.514]}]]